User: anonymous   Login
Location: Unspecified
(0.0000°N, 0.0000°E)
Time: 14:42:59
(UTC+00:00)
Language:

CARTOSAT 2D - Orbit

View from above orbital plane
View from above orbital plane
View from above satellite
View from above satellite

Ground track
Ground track

The orbit data is extracted from the following two-line orbital elements,

1 41948U 17008A   21296.84465573  .00001041  00000-0  52588-4 0  9992
2 41948  97.4278 355.1720 0008524  76.0893 284.1239 15.19241909259871
Epoch (UTC): 23 October 2021 20:16:18
Eccentricity: 0.0008524
inclination: 97.4278°
perigee height: 502 km
apogee height: 514 km
right ascension of ascending node: 355.1720°
argument of perigee: 76.0893°
revolutions per day: 15.19241909
mean anomaly at epoch: 284.1239°
orbit number at epoch: 25987

The dashed part of the orbit path shows where the satellite is in the earth's shadow,  

DLR